Simultaneous Nadir Overpasses (SNOs) Predictions

Prediction of SNOs between AQUA and GOES-15 Satellite Orbit:

Table of predicted SNOs for the next 14.0 days since TLE Epoch: 9/18/2015
Index Date Time (AQUA) AQUA Lat,Lon GOES-15 Lat,Lon Distance(km) Time Diff (sec)
1 09/19/2015 22:22:42 0.38,-131.85 -0.32,-135.28 389.74 80
2 09/20/2015 10:43:58 0.69,-137.01 0.31,-135.26 199.49 80
3 09/22/2015 10:31:46 0.07,-134.06 0.31,-135.25 135.48 80
4 09/22/2015 22:53:10 -1.15,-139.25 -0.29,-135.26 453.87 80
5 09/24/2015 10:19:34 -0.57,-131.10 0.30,-135.23 469.82 80
6 09/24/2015 22:40:58 -0.51,-136.30 -0.29,-135.24 119.53 80
7 09/26/2015 22:28:46 0.14,-133.34 -0.29,-135.22 214.37 80
8 09/27/2015 10:50:01 0.99,-138.49 0.27,-135.20 374.48 80
9 09/29/2015 10:37:49 0.33,-135.54 0.27,-135.17 41.24 80
10 10/01/2015 10:25:36 -0.28,-132.57 0.27,-135.14 291.52 80
11 10/01/2015 22:47:00 -0.79,-137.77 -0.26,-135.13 299.31 80




NCC Satellite Simultaneous Nadir Overpasses (SNOs) Prediction Service
